Location: Most
(50.5133°N, 13.6207°E)
Time: 19:13:37
(UTC+02:00)

ISS - Pass Details

Date: 21 May 2019
Orbit: 407 x 410 km, 51.6° (Epoch: 23 May)

Event Time Altitude Azimuth Distance (km) Brightness Sun altitude
Rises 00:23:00 0° 274° (W) 2,335 0.2 -18.9°
Reaches altitude 10° 00:25:06 10° 277° (W) 1,475 -0.8 -18.9°
Maximum altitude 00:28:24 70° 2° (N) 439 -3.6 -19.0°
Drops below altitude 10° 00:31:42 10° 87° (E) 1,476 -1.0 -19.1°
Enters shadow 00:31:53 - 87° (E) 1,551 -0.9 -19.1°
